| time (UTC) | temp F | wind direction | speed MPH | gust MPH | rain 1hr in | rain 24hr in | rain mn in | humidity % | barometer mb |
| 20260505021500 | 53 | 0 | 0.0 | 0.0 | 0.01 | 0.04 | 0.04 | 82 | 1001.5 |
| 20260505015500 | 53 | 0 | 0.0 | 0.0 | 0.02 | 0.04 | 0.04 | 81 | 1002.8 |
| 20260505014001 | 54 | 0 | 0.0 | 0.0 | 0.02 | 0.04 | 0.04 | 79 | 1002.5 |
| 20260505012500 | 55 | 0 | 0.0 | 0.0 | 0.02 | 0.04 | 0.04 | 77 | 1002.6 |
| 20260505011000 | 55 | 0 | 0.0 | 0.0 | 0.01 | 0.03 | 0.03 | 74 | 1002.0 |
| 20260505005500 | 56 | 0 | 0.0 | 0.0 | 0.01 | 0.02 | 0.02 | 67 | 1003.0 |
| 20260505005001 | 57 | 2 | 2.0 | 6.0 | 0.02 | 0.02 | 0.02 | 63 | 1002.7 |
| 20260505004001 | 57 | 51 | 0.0 | 3.0 | 0.02 | 0.02 | 0.02 | 63 | 1002.6 |
| 20260505003500 | 57 | 87 | 0.0 | 1.0 | 0.02 | 0.02 | 0.02 | 65 | 1002.6 |
| 20260505002500 | 58 | 87 | 0.0 | 0.0 | 0.02 | 0.02 | 0.02 | 66 | 1002.5 |
| 20260505000501 | 59 | 87 | 0.0 | 6.0 | 0.02 | 0.02 | 0.02 | 48 | 1002.1 |
| 20260504235001 | 63 | 281 | 0.0 | 3.0 | 0.00 | 0.00 | 0.00 | 53 | 1002.2 |
| 20260504233501 | 64 | 311 | 0.0 | 3.0 | 0.00 | 0.00 | 0.00 | 35 | 1001.4 |
| 20260504232001 | 65 | 333 | 0.0 | 1.0 | 0.00 | 0.00 | 0.00 | 35 | 1001.0 |
| 20260504231500 | 65 | 340 | 0.0 | 3.0 | 0.00 | 0.00 | 0.00 | 35 | 1000.8 |
| 20260504224501 | 66 | 346 | 1.0 | 5.0 | 0.00 | 0.00 | 0.00 | 33 | 999.9 |
| 20260504223501 | 66 | 3 | 2.0 | 7.0 | 0.00 | 0.00 | 0.00 | 33 | 1000.0 |
| 20260504223001 | 66 | 358 | 3.0 | 7.0 | 0.00 | 0.00 | 0.00 | 34 | 1000.0 |
| 20260504222001 | 66 | 346 | 0.0 | 5.0 | 0.00 | 0.00 | 0.00 | 34 | 999.9 |
| 20260504221001 | 66 | 334 | 2.0 | 6.0 | 0.00 | 0.00 | 0.00 | 34 | 1000.0 |
| 20260504212001 | 66 | 332 | 2.0 | 12.0 | 0.00 | 0.00 | 0.00 | 36 | 1000.7 |
| 20260504211501 | 66 | 335 | 3.0 | 18.0 | 0.00 | 0.00 | 0.00 | 35 | 1000.7 |
| 20260504211001 | 67 | 349 | 4.0 | 12.0 | 0.00 | 0.00 | 0.00 | 33 | 1000.7 |
| 20260504210501 | 67 | 359 | 3.0 | 12.0 | 0.00 | 0.00 | 0.00 | 32 | 1000.6 |
| 20260504210001 | 67 | 354 | 5.0 | 12.0 | 0.00 | 0.00 | 0.00 | 32 | 1000.1 |
| 20260504205001 | 65 | 3 | 4.0 | 9.0 | 0.00 | 0.00 | 0.00 | 33 | 1000.3 |
| 20260504204501 | 65 | 358 | 5.0 | 12.0 | 0.00 | 0.00 | 0.00 | 33 | 1000.3 |
| 20260504204001 | 65 | 3 | 5.0 | 12.0 | 0.00 | 0.00 | 0.00 | 32 | 1000.4 |
| 20260504203501 | 65 | 3 | 6.0 | 13.0 | 0.00 | 0.00 | 0.00 | 33 | 1000.4 |
| 20260504201501 | 66 | 2 | 9.0 | 16.0 | 0.00 | 0.00 | 0.00 | 31 | 999.9 |
| 20260504201001 | 66 | 349 | 7.0 | 16.0 | 0.00 | 0.00 | 0.00 | 31 | 1000.0 |
| 20260504200501 | 66 | 341 | 5.0 | 17.0 | 0.00 | 0.00 | 0.00 | 30 | 1000.4 |
| 20260504193001 | 69 | 1 | 5.0 | 15.0 | 0.00 | 0.00 | 0.00 | 27 | 998.8 |
| 20260504192500 | 69 | 3 | 5.0 | 10.0 | 0.00 | 0.00 | 0.00 | 26 | 998.6 |
| 20260504190501 | 72 | 0 | 0.0 | 3.0 | 0.00 | 0.00 | 0.00 | 21 | 997.9 |
| 20260504190001 | 72 | 309 | 0.0 | 3.0 | 0.00 | 0.00 | 0.00 | 24 | 997.2 |
| 20260504185002 | 72 | 351 | 2.0 | 7.0 | 0.00 | 0.00 | 0.00 | 23 | 997.1 |
| 20260504184001 | 73 | 5 | 0.0 | 7.0 | 0.00 | 0.00 | 0.00 | 24 | 996.9 |
| 20260504180501 | 74 | 322 | 0.0 | 3.0 | 0.00 | 0.00 | 0.00 | 23 | 996.7 |
| 20260504175001 | 74 | 279 | 1.0 | 5.0 | 0.00 | 0.00 | 0.00 | 24 | 996.3 |
| 20260504174501 | 74 | 197 | 1.0 | 3.0 | 0.00 | 0.00 | 0.00 | 23 | 996.3 |
| 20260504174001 | 74 | 180 | 1.0 | 12.0 | 0.00 | 0.00 | 0.00 | 22 | 996.2 |
| 20260504173501 | 74 | 214 | 1.0 | 3.0 | 0.00 | 0.00 | 0.00 | 22 | 996.3 |
| 20260504173001 | 74 | 291 | 1.0 | 3.0 | 0.00 | 0.00 | 0.00 | 23 | 996.4 |
| 20260504171502 | 73 | 254 | 0.0 | 2.0 | 0.00 | 0.00 | 0.00 | 21 | 996.4 |
| 20260504170501 | 73 | 312 | 0.0 | 3.0 | 0.00 | 0.00 | 0.00 | 22 | 996.6 |
| 20260504141002 | 50 | 30 | 0.0 | 0.0 | 0.00 | 0.00 | 0.00 | 52 | 1000.3 |
| 20260504140501 | 50 | 30 | 0.0 | 0.0 | 0.00 | 0.00 | 0.00 | 53 | 1000.2 |
| 20260504110502 | 42 | 30 | 0.0 | 0.0 | 0.00 | 0.00 | 0.00 | 60 | 1000.3 |
| 20260504050002 | 58 | 88 | 0.0 | 0.0 | 0.00 | 0.00 | 0.00 | 38 | 999.8 |
| 20260504045002 | 59 | 88 | 0.0 | 0.0 | 0.00 | 0.00 | 0.00 | 36 | 999.8 |
| 20260504043002 | 60 | 90 | 1.0 | 3.0 | 0.00 | 0.00 | 0.00 | 33 | 999.3 |
| 20260504042502 | 60 | 90 | 0.0 | 3.0 | 0.00 | 0.00 | 0.00 | 32 | 999.5 |
| 20260504042002 | 61 | 90 | 0.0 | 0.0 | 0.00 | 0.00 | 0.00 | 32 | 999.8 |
| 20260504041002 | 62 | 89 | 0.0 | 5.0 | 0.00 | 0.00 | 0.00 | 31 | 999.5 |
| 20260504040002 | 63 | 54 | 1.0 | 5.0 | 0.00 | 0.00 | 0.00 | 30 | 1000.0 |
| 20260504035002 | 64 | 56 | 1.0 | 6.0 | 0.00 | 0.00 | 0.00 | 28 | 999.7 |
| 20260504034502 | 64 | 82 | 3.0 | 6.0 | 0.00 | 0.00 | 0.00 | 26 | 999.5 |
| 20260504034002 | 64 | 63 | 2.0 | 5.0 | 0.00 | 0.00 | 0.00 | 24 | 999.4 |
| 20260504033502 | 64 | 112 | 1.0 | 3.0 | 0.00 | 0.00 | 0.00 | 24 | 999.3 |
| 20260504033002 | 63 | 114 | 1.0 | 6.0 | 0.00 | 0.00 | 0.00 | 26 | 999.5 |
| 20260504032003 | 62 | 129 | 0.0 | 0.0 | 0.00 | 0.00 | 0.00 | 30 | 999.6 |
| 20260504031502 | 63 | 129 | 0.0 | 0.0 | 0.00 | 0.00 | 0.00 | 29 | 999.3 |
| 20260504030502 | 63 | 141 | 0.0 | 0.0 | 0.00 | 0.00 | 0.00 | 27 | 999.0 |
| 20260504030002 | 63 | 141 | 0.0 | 1.0 | 0.00 | 0.00 | 0.00 | 27 | 999.9 |
| 20260504023002 | 65 | 141 | 0.0 | 0.0 | 0.00 | 0.00 | 0.00 | 26 | 999.5 |